Stations météo

réclame
Mon MeteoGroup
J6-A, Pays-Bas (6211): Température de l'air & dewpoint: 17.01.2020 22:00:00 - 23.01.2020 22:00:00 (CET)J6-A, Pays-Bas (6211): Vitesse du vent & gusts: 17.01.2020 22:00:00 - 23.01.2020 22:00:00 (CET)J6-A, Pays-Bas (6211): Direction du vent: 17.01.2020 22:00:00 - 23.01.2020 22:00:00 (CET)J6-A, Pays-Bas (6211): reduced air pressure: 17.01.2020 22:00:00 - 23.01.2020 22:00:00 (CET)J6-A, Pays-Bas (6211): visibility: 17.01.2020 22:00:00 - 23.01.2020 22:00:00 (CET)
Date & Time tt [°C] td [°C] ff [km/h] ff [knt] fx [km/h] fx [knt] dd ppp [hPa] vv [km]
23.01.2020 22:00:00 6,3 5,9 22 12 25 14 WSW 1026,1 5
23.01.2020 21:00:00 6,4 6,2 21 11 25 14 WSW 1026,7 2,5
23.01.2020 20:00:00 6,3 6,1 24 13 25 14 W 1027,3 2,7
23.01.2020 19:00:00 6,5 6,1 26 14 25 14 WSW 1027,5 10
23.01.2020 18:00:00 6,7 6,0 22 12 25 14 WSW 1027,7 10
23.01.2020 17:00:00 6,8 6,8 24 13 25 14 WSW 1028,1 8
23.01.2020 16:00:00 6,9 6,9 26 14 25 14 WSW 1028,4 -
23.01.2020 15:00:00 6,9 6,9 22 12 22 12 SW 1029,1 0,2
23.01.2020 14:00:00 6,6 6,6 16 9 18 10 SW 1030,0 0,2
23.01.2020 13:00:00 7,2 7,2 11 6 11 6 SSW 1031,0 0,1
23.01.2020 12:00:00 7,5 7,5 9 5 11 6 SW 1032,3 0,3
23.01.2020 11:00:00 7,5 7,5 15 8 14 8 WSW 1032,8 0,7
23.01.2020 10:00:00 7,6 7,5 13 7 14 8 WSW 1033,2 1,0
23.01.2020 09:00:00 7,5 7,5 13 7 14 8 WSW 1033,3 1,3
23.01.2020 08:00:00 7,4 7,4 14 8 14 8 WSW 1033,4 0,5
23.01.2020 07:00:00 7,3 7,3 16 9 18 10 SW 1033,4 1,1
23.01.2020 06:00:00 7,2 7,2 18 10 18 10 SW 1033,6 1,1
23.01.2020 05:00:00 7,2 7,1 16 9 18 10 SW 1034,0 0,4
23.01.2020 04:00:00 7,2 6,8 15 8 14 8 SW 1034,6 10
23.01.2020 03:00:00 7,5 7,0 15 8 14 8 SSW 1035,1 10
23.01.2020 02:00:00 7,4 7,1 13 7 11 6 S 1035,5 10
23.01.2020 01:00:00 7,1 6,9 9 5 11 6 S 1035,6 10
23.01.2020 00:00:00 7,0 7,0 2 1 7 4 - 1036,1 10
22.01.2020 23:00:00 6,9 6,6 2 1 7 4 - 1036,1 10
22.01.2020 22:00:00 6,9 6,7 4 2 7 4 - 1036,0 10
22.01.2020 21:00:00 6,9 6,9 4 2 11 6 - 1036,2 1,2
22.01.2020 20:00:00 7,0 7,0 4 2 11 6 - 1036,2 0,7
22.01.2020 19:00:00 7,1 7,1 8 4 22 12 - 1036,5 0,6
22.01.2020 18:00:00 7,5 7,5 18 10 22 12 NW 1036,5 10
22.01.2020 17:00:00 7,1 7,1 18 10 22 12 NW 1035,7 0,3
22.01.2020 16:00:00 7,4 7,4 24 13 22 12 NW 1035,5 0,4
22.01.2020 15:00:00 7,5 7,5 18 10 22 12 NW 1036,5 0,2
22.01.2020 14:00:00 7,5 7,5 15 8 22 12 NW 1036,3 0,2
22.01.2020 13:00:00 7,5 7,5 21 11 22 12 NW 1036,9 0,1
22.01.2020 12:00:00 7,5 7,5 15 8 18 10 WNW 1037,1 0,1
22.01.2020 11:00:00 7,5 7,5 9 5 18 10 - 1037,1 0,2
22.01.2020 10:00:00 7,7 7,6 13 7 22 12 - 1036,8 0,9
22.01.2020 09:00:00 7,8 7,4 16 9 22 12 NW 1036,2 7
22.01.2020 08:00:00 7,8 7,4 26 14 29 16 NW 1036,0 5
22.01.2020 07:00:00 7,8 7,3 29 16 29 16 WNW 1036,4 4,5
22.01.2020 06:00:00 7,8 7,3 24 13 25 14 WNW 1036,3 4,2
22.01.2020 05:00:00 7,5 7,2 24 13 25 14 W 1036,5 3,0
22.01.2020 04:00:00 7,2 6,9 24 13 25 14 W 1036,4 1,7
22.01.2020 03:00:00 7,2 6,5 26 14 29 16 W 1037,1 3,2
22.01.2020 02:00:00 7,1 6,1 28 15 29 16 W 1037,2 6
22.01.2020 01:00:00 7,1 6,1 26 14 29 16 W 1037,6 6
22.01.2020 00:00:00 7,1 6,0 26 14 25 14 WSW 1037,5 10
21.01.2020 23:00:00 7,2 6,1 24 13 22 12 WSW 1037,6 10
21.01.2020 22:00:00 7,3 6,3 18 10 18 10 WSW 1038,0 10
21.01.2020 21:00:00 7,4 6,0 18 10 18 10 WSW 1038,1 10
21.01.2020 20:00:00 7,1 5,3 18 10 18 10 WSW 1038,6 10
21.01.2020 19:00:00 7,1 5,1 15 8 22 12 WSW 1038,4 10
21.01.2020 18:00:00 7,1 5,4 22 12 22 12 W 1038,9 10
21.01.2020 17:00:00 7,1 5,4 21 11 22 12 W 1038,8 10
21.01.2020 16:00:00 7,0 5,4 22 12 22 12 W 1038,9 10
21.01.2020 15:00:00 6,9 4,1 18 10 22 12 W 1039,2 10
21.01.2020 14:00:00 6,7 3,6 21 11 22 12 WSW 1040,0 10
21.01.2020 13:00:00 6,7 3,5 16 9 22 12 WSW 1040,4 10
21.01.2020 12:00:00 6,8 3,6 16 9 22 12 W 1040,6 10
21.01.2020 11:00:00 6,8 3,5 22 12 25 14 W 1040,8 10
21.01.2020 10:00:00 6,6 3,3 24 13 25 14 W 1040,6 10
21.01.2020 09:00:00 6,6 3,8 21 11 25 14 W 1040,5 10
21.01.2020 08:00:00 6,6 3,9 21 11 22 12 W 1040,2 10
21.01.2020 07:00:00 6,6 3,9 15 8 18 10 WSW 1039,6 10
21.01.2020 06:00:00 6,1 3,7 13 7 14 8 WSW 1040,1 10
21.01.2020 05:00:00 6,2 3,8 11 6 18 10 W 1040,8 10
21.01.2020 04:00:00 6,3 4,2 15 8 22 12 W 1040,7 10
21.01.2020 03:00:00 6,5 4,2 18 10 25 14 W 1041,4 10
21.01.2020 02:00:00 6,7 4,4 26 14 29 16 WSW 1041,4 10
21.01.2020 01:00:00 6,8 4,6 29 16 29 16 W 1042,0 10
21.01.2020 00:00:00 7,0 4,7 29 16 32 18 WSW 1042,3 10
20.01.2020 23:00:00 6,9 4,9 31 17 32 18 WSW 1042,4 10
20.01.2020 22:00:00 7,1 5,0 29 16 29 16 WSW 1042,9 10
20.01.2020 21:00:00 6,8 4,8 31 17 32 18 WSW 1043,2 10
20.01.2020 20:00:00 6,9 4,0 34 18 32 18 WSW 1043,3 10
20.01.2020 19:00:00 6,8 3,9 34 18 32 18 WSW 1043,3 10
20.01.2020 18:00:00 6,5 3,9 31 17 32 18 WSW 1043,3 10
20.01.2020 17:00:00 6,5 4,2 28 15 29 16 WSW 1043,5 10
20.01.2020 16:00:00 6,5 4,3 28 15 29 16 WSW 1043,5 10
20.01.2020 15:00:00 6,5 4,5 29 16 29 16 W 1044,3 10
20.01.2020 14:00:00 6,5 4,4 34 18 32 18 W 1044,7 10
20.01.2020 13:00:00 6,8 4,5 29 16 32 18 WSW 1045,0 -
20.01.2020 12:00:00 6,9 5,0 28 15 29 16 WSW 1045,3 -
20.01.2020 11:00:00 6,8 4,8 28 15 29 16 W 1045,5 -
20.01.2020 10:00:00 6,8 4,7 28 15 29 16 W 1045,2 -
20.01.2020 09:00:00 6,8 4,4 31 17 32 18 W 1045,3 -
20.01.2020 08:00:00 6,9 3,8 29 16 32 18 WSW 1045,3 -
20.01.2020 07:00:00 7,1 3,8 34 18 32 18 W 1045,1 -
20.01.2020 06:00:00 7,0 3,6 34 18 36 19 W 1045,1 -
20.01.2020 05:00:00 7,0 3,9 35 19 32 18 W 1045,5 -
20.01.2020 04:00:00 7,0 4,7 26 14 25 14 W 1045,8 -
20.01.2020 03:00:00 7,2 4,3 26 14 25 14 W 1046,3 -
20.01.2020 02:00:00 7,0 3,9 22 12 25 14 W 1046,1 -
20.01.2020 01:00:00 7,1 3,4 28 15 29 16 W 1046,1 -
20.01.2020 00:00:00 7,2 3,6 28 15 29 16 W 1046,1 10
19.01.2020 23:00:00 7,1 3,7 21 11 22 12 W 1046,0 39
19.01.2020 22:00:00 7,2 3,2 18 10 22 12 W 1046,0 10
19.01.2020 21:00:00 7,2 3,6 21 11 22 12 W 1045,3 -
19.01.2020 20:00:00 7,2 4,2 26 14 25 14 WNW 1045,4 -
19.01.2020 19:00:00 7,2 3,6 21 11 25 14 WNW 1045,0 -
19.01.2020 18:00:00 7,1 4,0 24 13 29 16 WNW 1044,7 -
19.01.2020 17:00:00 7,1 4,0 26 14 25 14 NW 1044,0 -
19.01.2020 16:00:00 7,3 4,0 24 13 29 16 NW 1043,2 -
19.01.2020 15:00:00 7,4 4,3 28 15 29 16 NW 1042,4 -
19.01.2020 14:00:00 7,7 3,9 31 17 36 19 NW 1043,4 10
19.01.2020 13:00:00 7,7 4,0 37 20 40 21 NW 1043,4 10
19.01.2020 12:00:00 7,6 3,9 42 23 43 23 NW 1042,7 10
19.01.2020 11:00:00 7,6 4,5 39 21 43 23 NW 1041,4 10
19.01.2020 10:00:00 7,7 4,5 39 21 43 23 NW 1041,3 10
19.01.2020 09:00:00 7,8 3,9 44 24 47 25 NW 1039,0 14
19.01.2020 08:00:00 7,7 4,0 42 23 47 25 NW 1037,8 -
19.01.2020 07:00:00 7,5 3,3 34 18 50 27 - 1036,7 -
19.01.2020 06:00:00 7,0 1,6 42 23 72 39 NNW 1035,3 10
19.01.2020 05:00:00 7,5 1,9 48 26 58 31 NNW 1034,8 10
19.01.2020 04:00:00 7,2 2,3 52 28 65 35 NW 1034,1 10
19.01.2020 03:00:00 7,4 2,9 59 32 61 33 NW 1033,3 -
19.01.2020 02:00:00 6,6 3,1 18 10 58 31 - 1032,4 10
19.01.2020 01:00:00 6,5 2,7 55 30 61 33 NW 1030,9 -
19.01.2020 00:00:00 6,4 2,6 57 31 61 33 NW 1029,8 -
18.01.2020 23:00:00 6,2 2,4 57 31 61 33 NW 1028,7 19
18.01.2020 22:00:00 7,2 1,9 55 30 58 31 NW 1028,6 10
18.01.2020 21:00:00 6,9 2,2 54 29 58 31 NW 1027,9 10
18.01.2020 20:00:00 7,1 2,1 55 30 54 29 NW 1027,6 10
18.01.2020 19:00:00 7,0 2,0 52 28 50 27 NW 1026,6 10
18.01.2020 18:00:00 6,9 2,3 50 27 50 27 WNW 1025,7 10
18.01.2020 17:00:00 6,8 2,5 48 26 50 27 WNW 1024,6 10
18.01.2020 16:00:00 6,9 2,6 48 26 50 27 WNW 1024,1 10
18.01.2020 15:00:00 7,0 2,4 52 28 50 27 WNW 1023,7 10
18.01.2020 14:00:00 7,1 2,8 52 28 50 27 WNW 1022,8 10
18.01.2020 13:00:00 7,1 2,3 48 26 50 27 NW 1021,4 10
18.01.2020 12:00:00 7,0 1,7 42 23 65 35 WNW 1021,7 10
18.01.2020 11:00:00 7,0 2,3 46 25 47 25 WNW 1020,5 10
18.01.2020 10:00:00 6,1 2,2 34 18 54 29 WNW 1019,0 10
18.01.2020 09:00:00 5,9 1,4 46 25 47 25 WNW 1018,3 10
18.01.2020 08:00:00 7,0 2,1 46 25 50 27 W 1016,9 10
18.01.2020 07:00:00 7,1 2,1 54 29 54 29 WNW 1016,2 10
18.01.2020 06:00:00 7,1 3,4 50 27 54 29 W 1015,7 10
18.01.2020 05:00:00 6,8 3,3 55 30 54 29 W 1015,2 10
18.01.2020 04:00:00 6,9 3,4 50 27 50 27 W 1014,9 10
18.01.2020 03:00:00 6,8 3,6 54 29 54 29 W 1014,6 10
18.01.2020 02:00:00 6,7 3,2 57 31 58 31 WSW 1013,7 10
18.01.2020 01:00:00 6,8 3,3 55 30 58 31 WSW 1013,3 10
18.01.2020 00:00:00 6,9 3,2 54 29 58 31 WSW 1012,9 10
17.01.2020 23:00:00 7,1 3,3 57 31 58 31 W 1012,6 10
17.01.2020 22:00:00 7,1 3,4 59 32 58 31 W 1012,1 10

tt = Température de l'air
td = dewpoint
ff = Vitesse du vent
fx = gusts
dd = Direction du vent
ppp = reduced air pressure
vv = visibility

stations d'obs. à proximité